Hourly Weather Luginy

Today, 7 May, Friday

Time Temperature Precipitation Wind Pressure Humidity
00:00 +5°C° 0 mm 3 mps 742 mmHg 73%
01:00 +5°C° 0 mm 2 mps 742 mmHg 76%
02:00 +5°C° 0 mm 2 mps 742 mmHg 78%
03:00 +5°C° 0 mm 2 mps 742 mmHg 80%
04:00 +5°C° 0 mm 2 mps 742 mmHg 81%
05:00 +5°C° 0 mm 2 mps 742 mmHg 83%
06:00 +7°C° 0 mm 3 mps 742 mmHg 78%
07:00 +7°C° 0 mm 4 mps 742 mmHg 74%
08:00 +9°C° 0 mm 5 mps 742 mmHg 68%
09:00 +11°C° 0 mm 4 mps 741 mmHg 64%
10:00 +12°C° 0 mm 4 mps 741 mmHg 60%
11:00 +13°C° 0 mm 4 mps 741 mmHg 56%
12:00 +12°C° 0.5 mm 4 mps 740 mmHg 66%
13:00 +11°C° 0.5 mm 3 mps 739 mmHg 77%
14:00 +10°C° 0.5 mm 2 mps 739 mmHg 88%
15:00 +11°C° 0.1 mm 3 mps 738 mmHg 84%
16:00 +12°C° 0.1 mm 4 mps 738 mmHg 80%
17:00 +13°C° 0.1 mm 4 mps 738 mmHg 75%
18:00 +12°C° 0.1 mm 3 mps 738 mmHg 80%
19:00 +11°C° 0.1 mm 3 mps 738 mmHg 86%
20:00 +10°C° 0.1 mm 2 mps 738 mmHg 91%
21:00 +10°C° 0.1 mm 2 mps 738 mmHg 91%
22:00 +9°C° 0.1 mm 2 mps 738 mmHg 92%
23:00 +10°C° 0.1 mm 1 mps 738 mmHg 92%

Tomorrow, 8 May, Saturday

Time Temperature Precipitation Wind Pressure Humidity
00:00 +9°C° 0.5 mm 2 mps 738 mmHg 93%
01:00 +9°C° 0.5 mm 2 mps 738 mmHg 95%
02:00 +9°C° 0.5 mm 2 mps 738 mmHg 96%
03:00 +7°C° 0.6 mm 4 mps 738 mmHg 95%
04:00 +7°C° 0.6 mm 5 mps 738 mmHg 95%
05:00 +5°C° 0.6 mm 6 mps 739 mmHg 94%
06:00 +5°C° 0.8 mm 6 mps 739 mmHg 92%
07:00 +4°C° 0.8 mm 6 mps 740 mmHg 90%
08:00 +4°C° 0.8 mm 6 mps 741 mmHg 88%
09:00 +4°C° 0 mm 6 mps 741 mmHg 84%
10:00 +4°C° 0 mm 7 mps 741 mmHg 80%
11:00 +4°C° 0 mm 7 mps 742 mmHg 77%
12:00 +3°C° 0.1 mm 7 mps 742 mmHg 83%
13:00 +3°C° 0.1 mm 6 mps 743 mmHg 89%
14:00 +2°C° 0.1 mm 6 mps 743 mmHg 95%
15:00 +3°C° 0.2 mm 6 mps 744 mmHg 92%
16:00 +4°C° 0.2 mm 6 mps 745 mmHg 89%
17:00 +5°C° 0.2 mm 5 mps 745 mmHg 85%
18:00 +5°C° 0 mm 5 mps 746 mmHg 86%
19:00 +3°C° 0 mm 5 mps 746 mmHg 86%
20:00 +2°C° 0 mm 5 mps 747 mmHg 87%
21:00 +2°C° 0 mm 5 mps 747 mmHg 88%
22:00 +1°C° 0 mm 5 mps 747 mmHg 89%
23:00 +1°C° 0 mm 4 mps 748 mmHg 90%

Day after tomorrow, 9 May, Sunday

Time Temperature Precipitation Wind Pressure Humidity
00:00 0°C° 0 mm 4 mps 748 mmHg 92%
01:00 +1°C° 0 mm 3 mps 749 mmHg 93%
02:00 +1°C° 0 mm 3 mps 749 mmHg 95%
03:00 0°C° 0 mm 3 mps 749 mmHg 94%
04:00 0°C° 0 mm 3 mps 750 mmHg 94%
05:00 0°C° 0 mm 3 mps 750 mmHg 94%
06:00 +2°C° 0 mm 3 mps 751 mmHg 87%
07:00 +4°C° 0 mm 3 mps 751 mmHg 80%
08:00 +7°C° 0 mm 3 mps 751 mmHg 74%
09:00 +9°C° 0 mm 3 mps 751 mmHg 66%
10:00 +10°C° 0 mm 3 mps 751 mmHg 58%
11:00 +12°C° 0 mm 3 mps 752 mmHg 51%
12:00 +13°C° 0 mm 3 mps 752 mmHg 47%
13:00 +13°C° 0 mm 3 mps 752 mmHg 43%
14:00 +14°C° 0 mm 3 mps 752 mmHg 39%
15:00 +15°C° 0 mm 2 mps 752 mmHg 39%
16:00 +15°C° 0 mm 2 mps 752 mmHg 40%
17:00 +15°C° 0 mm 2 mps 752 mmHg 41%
18:00 +13°C° 0 mm 2 mps 752 mmHg 47%
19:00 +11°C° 0 mm 1 mps 752 mmHg 54%
20:00 +9°C° 0 mm 1 mps 752 mmHg 60%
21:00 +9°C° 0 mm 1 mps 753 mmHg 62%
22:00 +8°C° 0 mm 1 mps 753 mmHg 65%
23:00 +7°C° 0 mm 1 mps 753 mmHg 67%

10 May, Monday

Time Temperature Precipitation Wind Pressure Humidity
00:00 +6°C° 0 mm 2 mps 753 mmHg 68%
01:00 +5°C° 0 mm 2 mps 753 mmHg 69%
02:00 +5°C° 0 mm 2 mps 753 mmHg 70%
03:00 +5°C° 0 mm 2 mps 754 mmHg 71%
04:00 +5°C° 0 mm 2 mps 754 mmHg 72%
05:00 +5°C° 0 mm 2 mps 754 mmHg 73%
06:00 +7°C° 0 mm 2 mps 754 mmHg 68%
07:00 +9°C° 0 mm 3 mps 754 mmHg 62%
08:00 +11°C° 0 mm 3 mps 754 mmHg 56%
09:00 +13°C° 0 mm 3 mps 754 mmHg 52%
10:00 +14°C° 0 mm 4 mps 754 mmHg 48%
11:00 +15°C° 0 mm 4 mps 754 mmHg 44%
12:00 +17°C° 0 mm 4 mps 754 mmHg 43%
13:00 +18°C° 0 mm 4 mps 754 mmHg 43%
14:00 +18°C° 0 mm 4 mps 753 mmHg 42%
15:00 +18°C° 0 mm 3 mps 753 mmHg 44%
16:00 +18°C° 0 mm 3 mps 753 mmHg 46%
17:00 +18°C° 0 mm 3 mps 753 mmHg 48%
18:00 +16°C° 0 mm 3 mps 753 mmHg 55%
19:00 +13°C° 0 mm 3 mps 753 mmHg 62%
20:00 +10°C° 0 mm 3 mps 753 mmHg 69%
21:00 +10°C° 0 mm 3 mps 753 mmHg 69%
22:00 +9°C° 0 mm 3 mps 753 mmHg 69%
23:00 +8°C° 0 mm 3 mps 753 mmHg 69%

11 May, Tuesday

Time Temperature Precipitation Wind Pressure Humidity
00:00 +7°C° 0 mm 3 mps 753 mmHg 71%
01:00 +7°C° 0 mm 2 mps 753 mmHg 74%
02:00 +6°C° 0 mm 2 mps 753 mmHg 76%
03:00 +6°C° 0 mm 2 mps 753 mmHg 77%
04:00 +6°C° 0 mm 2 mps 753 mmHg 79%
05:00 +6°C° 0 mm 2 mps 753 mmHg 80%
06:00 +8°C° 0 mm 3 mps 753 mmHg 73%
07:00 +10°C° 0 mm 3 mps 753 mmHg 66%
08:00 +12°C° 0 mm 3 mps 752 mmHg 59%
09:00 +14°C° 0 mm 3 mps 752 mmHg 54%
10:00 +16°C° 0 mm 3 mps 752 mmHg 49%
11:00 +18°C° 0 mm 3 mps 752 mmHg 44%
12:00 +19°C° 0 mm 3 mps 751 mmHg 45%
13:00 +20°C° 0 mm 3 mps 751 mmHg 46%
14:00 +21°C° 0 mm 3 mps 750 mmHg 47%
15:00 +21°C° 0 mm 3 mps 750 mmHg 50%
16:00 +21°C° 0 mm 3 mps 750 mmHg 53%
17:00 +21°C° 0 mm 4 mps 750 mmHg 56%
18:00 +19°C° 0 mm 3 mps 749 mmHg 64%
19:00 +17°C° 0 mm 3 mps 749 mmHg 73%
20:00 +14°C° 0 mm 3 mps 749 mmHg 82%
21:00 +13°C° 0 mm 3 mps 749 mmHg 86%
22:00 +13°C° 0 mm 4 mps 749 mmHg 89%
23:00 +13°C° 0 mm 4 mps 749 mmHg 93%

12 May, Wednesday

Time Temperature Precipitation Wind Pressure Humidity
00:00 +12°C° 0 mm 4 mps 749 mmHg 94%
01:00 +11°C° 0 mm 4 mps 749 mmHg 95%
02:00 +10°C° 0 mm 4 mps 749 mmHg 95%
03:00 +9°C° 0 mm 3 mps 749 mmHg 95%
04:00 +8°C° 0 mm 3 mps 749 mmHg 95%
05:00 +7°C° 0 mm 3 mps 749 mmHg 95%
06:00 +8°C° 0 mm 3 mps 749 mmHg 85%
07:00 +10°C° 0 mm 3 mps 749 mmHg 76%
08:00 +12°C° 0 mm 4 mps 748 mmHg 66%
09:00 +12°C° 0 mm 3 mps 748 mmHg 63%
10:00 +13°C° 0 mm 3 mps 748 mmHg 60%
11:00 +14°C° 0 mm 3 mps 747 mmHg 57%
12:00 +14°C° 0 mm 2 mps 747 mmHg 62%
13:00 +13°C° 0 mm 2 mps 746 mmHg 67%
14:00 +13°C° 0 mm 2 mps 746 mmHg 72%
15:00 +12°C° 0.1 mm 2 mps 745 mmHg 77%
16:00 +10°C° 0.1 mm 2 mps 745 mmHg 81%
17:00 +10°C° 0.1 mm 3 mps 745 mmHg 86%
18:00 +9°C° 0 mm 3 mps 745 mmHg 86%
19:00 +9°C° 0 mm 3 mps 745 mmHg 87%
20:00 +9°C° 0 mm 3 mps 745 mmHg 88%
21:00 +8°C° 0 mm 3 mps 745 mmHg 90%
22:00 +7°C° 0 mm 3 mps 745 mmHg 92%
23:00 +5°C° 0 mm 3 mps 745 mmHg 94%
Show more

We Need Your Consent

Meteoprog and our Service Providers may store and access personal data such as cookies, device identifiers or other similar technologies on your device and process such data to personalise content and ads, as well as provide social media features and to analyse the traffic.

  • Store and/or access information on your device

    Cookies, device identifiers or other information can be stored or accessed on your device for the purposes indicated above.

  • Personalised ads and content, ad and content measurement, audience insights, and products development

    Ads and content can be personalised based on a profile. More data can be added to better personalise ads and content. Ad and content performance can be measured. Insights about the audience who saw the ads and content can be derived. Such data can be used to develop or improve user’s experience, systems and software.

By clicking ‘I Agree’ you will allow the use of indicated cookies, device identifiers, web beacons or other similar technologies. Your settings can be changed in the browser on your device.

For certain purposes, legitimate interests may be relied on, rather than consent. You can read more about this in our Privacy and Cookie Policy.